Find Starlink 34661

NORAD ID: 64927 Int'l Des: 2025-157 Owner: SPXS Country: US Constellation: starlink operational
LEOCIRCULAR

Current View

Loading 3D Globe...

About Starlink 34661

Starlink 34661 (NORAD 64927) is a starlink constellation satellite (v2 mini) launched Jul 26, 2025 by SPXS of US. It operates in LEO, CIRCULAR orbit with a mass of 575.00 kg.

Upcoming Passes

Passes for default location (London). Set your location on the main map for personalized predictions.

Altitude History

Loading altitude history...

Two-Line Element Set

1 64927U 25157Z 26226.29518304 .00004427 00000-0 14203-3 0 9998
2 64927 53.1622 331.4875 0000770 61.7374 298.3706 15.34406445 60009
Epoch: Aug 14, 2026 • Age: 11 hours

Current Status

Altitude 468.0 km
Apogee / Perigee N/A
Velocity 7.64 km/s
Sub-Earth Point 50.16°N, 154.18°E
Launch Date Jul 26, 2025
Age 1 year
Type internet

Technical Details

Classification Payload
Mass 575.00 kg
Dry Mass 530.00 kg
Total Mass 575.00 kg
Length 0.30 m
Diameter 4.10 m
Span 29.00 m
Shape Box + pan
Manufacturer SPXS
Bus Type Starlink V2MO
Phase Status In Orbit
Owner/State SPXS/US

Most Searched